This is the latest recevied weather packets stored in our database for station/object WA1OUI. If no packets are shown the sender has not sent any weather packets the latest 10 day(s).
| Time | Temp. | Humidity | Pressure | Rain* | Wind** | Luminosity | Snow |
|---|---|---|---|---|---|---|---|
| 1777902728 | 16.67° C | 36% | 1009.2 hPa | 0 mm | - | 398 W/m² | - |
| 1777902426 | 16.11° C | 36% | 1009.5 hPa | 0 mm | - | 180 W/m² | - |
| 1777902122 | 16.11° C | 38% | 1009.5 hPa | 0 mm | - | 113 W/m² | - |
| 1777901821 | 15.56° C | 39% | 1009.6 hPa | 0 mm | - | 89 W/m² | - |
| 1777901518 | 15° C | 39% | 1009.6 hPa | 0 mm | - | 218 W/m² | - |
| 1777901215 | 15° C | 38% | 1009.6 hPa | 0 mm | - | 137 W/m² | - |
| 1777900912 | 14.44° C | 42% | 1009.8 hPa | 0 mm | - | 51 W/m² | - |
| 1777900610 | 14.44° C | 43% | 1009.9 hPa | 0 mm | - | 47 W/m² | - |
| 1777900307 | 13.89° C | 42% | 1010.1 hPa | 0 mm | - | 47 W/m² | - |
| 1777900003 | 13.89° C | 41% | 1010.1 hPa | 0 mm | - | 46 W/m² | - |
| 1777899700 | 13.89° C | 42% | 1010.2 hPa | 0 mm | - | 46 W/m² | - |
| 1777899398 | 13.33° C | 42% | 1010.2 hPa | 0 mm | - | 46 W/m² | - |
| 1777899095 | 13.33° C | 43% | 1010.2 hPa | 0 mm | - | 45 W/m² | - |
| 1777898792 | 13.33° C | 44% | 1010.4 hPa | 0 mm | - | 45 W/m² | - |
| 1777898489 | 12.78° C | 43% | 1010.4 hPa | 0 mm | - | 44 W/m² | - |
| 1777898187 | 12.78° C | 46% | 1010.1 hPa | 0 mm | - | 43 W/m² | - |
| 1777897884 | 12.22° C | 48% | 1010.3 hPa | 0 mm | - | 43 W/m² | - |
| 1777897580 | 12.22° C | 49% | 1010.3 hPa | 0 mm | - | 42 W/m² | - |
| 1777897276 | 11.67° C | 48% | 1010 hPa | 0 mm | - | 41 W/m² | - |
| 1777896972 | 11.67° C | 48% | 1010.2 hPa | 0 mm | - | 41 W/m² | - |
| 1777896669 | 11.11° C | 54% | 1010.2 hPa | 0 mm | - | 40 W/m² | - |
| 1777896366 | 11.11° C | 53% | 1010.4 hPa | 0 mm | - | 39 W/m² | - |
| 1777896064 | 10.56° C | 57% | 1010.4 hPa | 0 mm | - | 40 W/m² | - |
| 1777895762 | 10° C | 57% | 1010.5 hPa | 0 mm | - | 37 W/m² | - |
| 1777895459 | 9.44° C | 60% | 1010.6 hPa | 0 mm | - | 36 W/m² | - |
* Rain latest hour (hover to see other rain measurements)
** Current wind speed in m/s (hover to see current wind gust speed)